www.pogodaiklimat.ru

Погода и климат >> Архив погоды >> Германия >> Трир


ПОГОДА в Трире

  • Прогноз погоды в Трире
  • Монитор погоды в Трире

АРХИВ ПОГОДЫ в Трире

Время (UTC), дата Ветер
(напр.,м/с)
 
Видим.   Явления Облачность Т
(С)
Тd
(С)
f
(%)
Тe
(С)
Тes
(С)
Комфортность P
(гПа)
Po
(гПа)
Тmin
(С)
Tmax
(С)
R
(мм)
R24
(мм)
S
(см)
19 10.06 Ю 3 21 км слаб. морось с дождем 9/9 240 м
[]
+14.7 +13.8 94 +14 +14 1012.1 980.1
20 10.06 ЮЗ 2 60 км в посл. час дождь {морось} 9/9 540 м
[]
+14.3 +12.7 90 +14 +14 1012.5 980.4
21 10.06 ЮЗ 3 45 км в посл. час дождь {морось} 10/10 1000 м
[]
+13.9 +12.7 92 +13 +13 1012.3 980.2 0.2
22 10.06 Ю 2 40 км 10/10 1230 м
[]
+13.4 +12.3 93 +13 +13 1012.6 980.4
23 10.06 Ю 2 35 км в посл. час дождь {морось} 10/10 1500 м
[]
+13.1 +12.1 94 +12 +12 1012.7 980.5
00 11.06 ЮЗ 3 29 км {дождь, морось} 10/10 100 м
[]
+13.1 +12.3 95 +12 +12 1012.4 980.2 0.0
01 11.06 ЮЗ 3 30 км 9/9 210 м
[]
+12.8 +11.7 93 +11 +11 1012.7 980.5
02 11.06 ЮЗ 2 30 км 10/10 240 м
[]
+12.6 +11.3 92 +12 +12 1012.6 980.3
03 11.06 Ю 2 24 км 10/10 270 м
[]
+12.2 +11.3 94 +11 +11 1012.9 980.6
04 11.06 Ю 1-2
{3}
21 км 10/0
[]
+11.9 +11.0 94 +12 +12 1013.0 980.6
05 11.06 ЮЗ 1 30 км в посл. час дождь 10/0
[]
+12.1 +10.8 92 +12 +13 1012.7 980.4
06 11.06 ЮЗ 2 29 км {дождь} 5/5 200 м
[]
+13.2 +11.5 89 +12 +14 1012.6 980.4 +11.8 +15.0 0.2
07 11.06 Ю 1-2
{3}
60 км 10/0 2000 м
[]
+13.9 +10.6 80 +14 +18 1012.2 980.1
08 11.06 С 2-3
{4}
60 км 3/3 480 м
[]
+15.2 +9.4 68 +15 +22 1011.6 979.6
09 11.06 ЮВ 1 70 км 4/4 700 м
[]
+16.9 +10.4 66 +18 +27 1011.6 979.8
10 11.06 Ю 2-5
{5}
60 км 10/0
[]
+18.6 +9.4 55 +20 +28 1011.7 980.1
11 11.06 Ю 2 70 км 9/9 1300 м
[]
+19.5 +9.4 52 +21 +23 комфорт 1011.6 980.1
12 11.06 ЮЗ 2 70 км 10/10 1230 м
[]
+18.0 +9.6 58 +19 +19 1011.9 980.2
13 11.06 ЮЗ 3 70 км 9/9 1320 м
[]
+18.7 +7.7 49 +19 +21 1011.4 979.8
14 11.06 Ю 2-3
{5}
70 км 10/0
[]
+19.0 +8.4 50 +20 +27 1011.3 979.7
15 11.06 Ю 2 70 км 10/0 2000 м
[]
+18.5 +7.8 50 +19 +24 1011.2 979.6
16 11.06 ЮЗ 1 70 км в посл. час дождь {морось} 10/10 1380 м
[]
+19.1 +9.9 55 +21 +21 комфорт 1010.9 979.4
17 11.06 Ю 1-2
{3}
70 км 10/10 1320 м
[]
+17.9 +10.0 60 +19 +19 1011.0 979.3
18 11.06 ЮЗ 2 45 км слаб. дождь {морось} 10/10 1000 м
[]
+16.5 +10.7 69 +17 +17 1011.4 979.6 +13.3 +20.0 0.0
19 11.06 Ю 1 70 км в посл. час дождь {морось} 10/10 1380 м
[]
+15.1 +12.2 83 +16 +16 1011.2 979.3
20 11.06 ЮЗ 2-3
{3}
60 км 10/0
[]
+14.6 +11.9 84 +14 +14 1011.3 979.3
21 11.06 Ю 2 60 км {дождь, морось} 10/0
[]
+13.9 +11.7 87 +13 +13 1011.0 978.9 0.1
22 11.06 ЮЗ 2 55 км 10/10 1260 м
[]
+13.7 +11.8 88 +13 +13 1011.0 978.9
23 11.06 Ю 3-4
{4}
50 км слаб. дождь 10/10 1200 м
[]
+13.5 +11.3 87 +12 +12 1010.9 978.8
00 12.06 Ю 2 23 км слаб. морось с дождем 9/9 50 м
[]
+13.1 +12.1 94 +12 +12 1010.9 978.8 0.2
01 12.06 ЮЗ 2 20 км в посл. час дождь {морось} 9/9 60 м
[]
+13.1 +12.4 96 +12 +12 1010.9 978.8
02 12.06 С 2 24 км в посл. час дождь {морось} 10/10 120 м
[]
+12.7 +11.8 94 +12 +12 1010.0 977.8
03 12.06 ЮВ 1 12 км {дождь, морось} 10/10 1500 м
[]
+12.2 +11.6 96 +12 +12 1009.4 977.2 0.0
04 12.06 В 2 16 км 10/10 800 м
[]
+11.9 +11.2 95 +11 +11 1008.9 976.7
05 12.06 ЮЗ 2-3
{4}
7000 м дымка н/о +12.5 +12.0 97 +11 +11 1008.7 976.6
06 12.06 ЮЗ 3 10 км слаб. дождь {морось} 10/10 100 м
[]
+12.5 +11.7 95 +11 +11 1009.0 976.8 +11.8 +16.5 0.4
07 12.06 ЮЗ 4 19 км в посл. час дождь {морось} 9/9 90 м
[]
+12.3 +11.7 96 +10 +11 1009.5 977.3
08 12.06 ЮЗ 4 27 км слаб. морось с дождем 10/10 240 м
[]
+12.4 +11.4 94 +10 +10 1010.1 977.9
09 12.06 ЮЗ 4 21 км слаб. дождь {морось} 9/9 240 м
[]
+12.8 +11.8 94 +11 +12 1010.4 978.2 2
10 12.06 Ю 5 10 км морось {дождь} 9/9 180 м
[]
+12.9 +11.8 93 +11 +11 1011.0 978.8
11 12.06 ЮЗ 4 40 км в посл. час морось 9/9 330 м
[]
+14.9 +12.0 83 +14 +15 1010.7 978.8
12 12.06 ЮЗ 6 35 км {дождь, морось} 9/9 900 м
[]
+15.7 +10.4 71 +14 +15 1011.2 979.3 0.1
13 12.06 ЮЗ 5-8
{9}
30 км 4/4 1500 м
[]
+17.1 +9.3 60 +16 +22 1011.2 979.4
14 12.06 Ю 6-9
{9}
70 км 1/1 1050 м
[]
+18.9 +10.1 57 +19 +24 1010.7 979.2
15 12.06 Ю 5 40 км 8/8 1200 м
[]
+20.1 +9.4 50 +21 +22 комфорт 1010.5 979.1
16 12.06 Ю 5-8
{9}
50 км 3/0 2000 м
[]
+18.9 +8.6 51 +19 +22 1010.5 979.0
17 12.06 Ю 5-7
{8}
35 км 3/3 1350 м
[]
+20.1 +8.8 48 +21 +22 комфорт 1010.2 978.8
18 12.06 Ю 5 65 км ясно +17.4 +8.2 55 +17 +17 1010.6 978.9 +12.0 +20.7
19 12.06 Ю 3-4
{7}
70 км 3/3 1500 м
[]
+17.2 +9.2 59 +17 +17 1011.0 979.3
20 12.06 Ю 3-4
{5}
70 км ясно +14.9 +9.1 68 +14 +14 1011.8 979.8
21 12.06 Ю 2-3
{7}
70 км ясно +13.0 +9.0 77 +12 +12 1012.2 980.0
22 12.06 З 2-2
{3}
70 км ясно +12.5 +9.4 81 +12 +12 1012.7 980.4
23 12.06 ЮЗ 3-4
{4}
70 км ясно +12.3 +9.3 82 +11 +11 1012.9 980.6
00 13.06 Ю 4 70 км ясно +12.2 +8.3 77 +10 +10 1013.3 980.9
01 13.06 Ю 4-6
{6}
70 км ясно +11.6 +8.4 81 +9 +9 1013.2 980.8
02 13.06 Ю 4-5
{5}
70 км ясно +11.5 +7.7 77 +9 +9 1013.5 981.0
03 13.06 Ю 2 70 км 9/0
[]
+10.5 +7.8 83 +9 +9 1013.9 981.3
04 13.06 Ю 3-5
{5}
70 км ясно +10.8 +7.6 81 +9 +9 1014.4 981.8
05 13.06 ЮЗ 2-3
{4}
65 км 3/0
[]
+10.6 +7.8 83 +9 +10 1014.7 982.1
06 13.06 Ю 4 65 км 3/0
[]
+14.1 +9.4 73 +13 +15 1014.6 982.4 +10.3 +17.7
07 13.06 Ю 5-6
{7}
25 км 3/0
[]
+15.2 +8.8 66 +14 +17 1014.5 982.4
08 13.06 Ю 6-9
{9}
27 км 1/0
[]
+16.9 +9.3 61 +16 +20 1014.3 982.4
09 13.06 ЮЗ 6 65 км 8/8 960 м
[]
+15.5 +8.8 64 +14 +15 1014.5 982.5
10 13.06 Ю 7 25 км 8/8 1200 м
[]
+19.3 +8.4 49 +20 +20 1014.0 982.4
11 13.06 Ю 8-12
{14}
19 км 3/3 1350 м
[]
+18.9 +7.8 48 +19 +21 1014.0 982.3
12 13.06 Ю 7 30 км 6/6 1410 м
[]
+20.9 +8.9 46 +22 +24 комфорт 1013.4 982.0
13 13.06 Ю 8 19 км 8/8 1500 м
[]
+20.3 +7.7 44 +21 +21 комфорт 1013.4 981.9
14 13.06 Ю 6-10
{13}
26 км 4/0 2000 м
[]
+21.9 +7.7 40 +23 +27 комфорт 1013.3 982.0
15 13.06 Ю 5 21 км 3/3 1500 м
[]
+23.1 +9.5 42 +25 +28 комфорт 1012.8 981.6
16 13.06 Ю 5 70 км 9/9 1500 м
[]
+20.3 +7.5 44 +21 +22 комфорт 1013.1 981.6
17 13.06 В 1 30 км слаб. дождь {морось} 10/10 660 м
[]
+14.3 +12.1 87 +15 +15 1015.0 982.9
18 13.06 В 1 70 км в посл. час дождь {морось} 1/0
[]
+15.5 +12.0 80 +16 +18 1014.3 982.3 +13.6 +23.2 0.8
19 13.06 С 3-4
{4}
70 км ясно +14.2 +11.9 86 +13 +13 1014.2 982.1
20 13.06 С 2 55 км 10/0
[]
+13.2 +11.9 92 +12 +12 1014.3 982.1
21 13.06 С 3 45 км 1/0
[]
+12.4 +11.4 94 +11 +11 1014.8 982.4
22 13.06 СВ 3 30 км 6/0
[]
+11.9 +11.2 95 +10 +10 1014.9 982.5
23 13.06 С 3 16 км 10/10 <50 м
[]
+11.4 +10.8 96 +9 +9 1015.0 982.5
00 14.06 С 4 40 км 9/0
[]
+11.6 +10.8 95 +9 +9 1014.3 981.9
01 14.06 С 2-4
{6}
12 км 1/1 30 м
[]
+10.8 +10.2 96 +9 +9 1014.2 981.7
02 14.06 С 2 26 км 5/0
[]
+10.8 +10.2 96 +9 +9 1013.9 981.4
03 14.06 С 4 40 км 3/0
[]
+10.6 +9.8 95 +8 +8 1013.6 981.1
04 14.06 С 1-4
{5}
30 км 3/0
[]
+9.7 +9.0 95 +9 +9 1014.2 981.5
05 14.06 С 2 22 км в посл. час туман {дымка} 4/4 60 м
[]
+9.9 +9.3 96 +8 +9 1014.5 981.9
06 14.06 ЮВ 1 10 км в посл. час туман {дымка} 9/9 <50 м
[]
+11.1 +10.4 95 +11 +11 1015.0 982.5 +9.3 +15.9
07 14.06 ЮВ 1-1
{2}
60 км 10/0
[]
+15.4 +11.7 79 +16 +20 1015.1 983.1
08 14.06 З 1 70 км 10/0
[]
+18.6 +12.4 67 +20 +26 1015.4 983.7
09 14.06 З 3 70 км 8/0
[]
+19.5 +11.9 61 +21 +28 комфорт 1015.4 983.8
10 14.06 Ю 1 70 км 4/0
[]
+22.6 +9.4 43 +24 +39 комфорт 1014.8 983.5
11 14.06 Ю 2 70 км 10/0
[]
+23.5 +10.2 43 +25 +33 комфорт 1014.6 983.4
12 14.06 Ю 8 70 км 10/0
[]
+24.8 +10.1 39 +26 +27 жарко 1014.2 983.2
13 14.06 Ю 5 70 км 10/0
[]
+25.2 +10.1 39 +26 +30 жарко 1013.9 982.9
14 14.06 ЮВ 5 70 км 10/0
[]
+24.4 +10.4 41 +25 +29 комфорт 1013.4 982.4
15 14.06 Ю 4 70 км 10/0
[]
+23.9 +10.5 43 +25 +29 комфорт 1013.2 982.1
16 14.06 Ю 4-6
{7}
70 км 10/0
[]
+23.0 +10.7 46 +25 +27 комфорт 1013.0 981.8
17 14.06 ЮВ 3 70 км 10/0
[]
+21.5 +11.2 52 +23 +25 комфорт 1012.8 981.5
18 14.06 В 2 40 км слаб. морось с дождем 9/9 50 м
[]
+18.9 +13.6 71 +20 +21 1012.5 980.9 +11.0 +26.3 0.1
19 14.06 СВ 2 70 км в посл. час дождь {морось} 10/0
[]
+18.2 +13.9 76 +19 +19 1011.7 980.1
20 14.06 С 1 70 км 10/0
[]
+17.7 +14.1 79 +19 +19 1012.0 980.3
21 14.06 ЮЗ 5 8000 м дождь {морось} 10/0 2000 м
[]
+16.8 +14.7 87 +16 +16 1013.6 981.8 0.1
22 14.06 СЗ 1 19 км в посл. час дождь {морось} 9/0
[]
+15.8 +14.9 94 +16 +16 1012.4 980.5
23 14.06 СВ 2 21 км 10/0 2000 м
[]
+15.3 +14.5 95 +15 +15 1011.5 979.6
00 15.06 СВ 2 1600 м в посл. час туман {дождь} 9/9 <50 м
[]
+14.7 +14.2 97 +14 +14 1010.7 978.8 2
01 15.06 З 2 400 м туман {дымка} 10/10 <50 м
[]
+15.0 +14.6 97 +15 +15 1010.7 978.8
02 15.06 ЮЗ 2 400 м туман {дымка} 10/10 <50 м
[]
+14.6 +14.2 97 +14 +14 1010.4 978.5
03 15.06 ЮЗ 4 13 км слаб. дождь {туман} 10/10 30 м
[]
+15.1 +14.4 96 +14 +14 1011.3 979.4 0.0
04 15.06 ЮЗ 3 8000 м слаб. морось {дождь} 10/10 150 м
[]
+15.3 +14.6 96 +15 +15 1011.6 979.7
05 15.06 ЮЗ 2 13 км в посл. час дождь {морось} 10/10 1500 м
[]
+15.6 +14.9 96 +15 +15 1011.6 979.7
06 15.06 ЮЗ 5 24 км слаб. морось {дождь} 9/9 200 м
[]
+15.9 +14.8 93 +15 +15 1012.6 980.7 +14.3 +19.2 2
07 15.06 ЮЗ 5 70 км в посл. час дождь {морось} 9/9 330 м
[]
+16.3 +14.5 89 +15 +16 1013.4 981.6
08 15.06 ЮЗ 4 70 км 10/10 400 м
[]
+17.7 +14.8 83 +17 +17 1014.0 982.3
09 15.06 ЮЗ 4 70 км {дождь, морось} 9/9 480 м
[]
+18.2 +13.7 75 +18 +19 1014.7 983.0 0.0
10 15.06 ЮЗ 5 70 км 9/9 630 м
[]
+19.0 +13.5 70 +20 +21 1015.2 983.6
11 15.06 ЮЗ 6 50 км 6/6 870 м
[]
+21.9 +14.0 61 +25 +28 комфорт 1015.0 983.7
12 15.06 ЮЗ 6 60 км {дождь, морось} 4/4 1080 м
[]
+22.3 +13.6 58 +25 +30 комфорт 1015.4 984.1
13 15.06 ЮЗ 6 45 км 5/5 1410 м
[]
+23.8 +12.2 48 +26 +29 жарко 1015.2 984.1
14 15.06 З 4 35 км 4/4 1440 м
[]
+21.9 +9.5 45 +23 +29 комфорт 1015.5 984.1
15 15.06 ЮЗ 4 70 км 9/0 2000 м
[]
+23.0 +11.2 47 +25 +29 комфорт 1015.4 984.2
16 15.06 З 5-8
{8}
30 км 5/0
[]
+23.0 +10.9 46 +25 +28 комфорт 1015.3 984.1
17 15.06 З 4 55 км 10/10 1410 м
[]
+22.5 +10.7 47 +24 +24 комфорт 1015.1 983.8
18 15.06 З 3 25 км 10/0
[]
+21.8 +10.5 49 +24 +24 комфорт 1015.5 984.1 +15.9 +24.7
19 15.06 З 3 70 км 9/0
[]
+20.2 +10.9 55 +22 +22 комфорт 1016.0 984.4
20 15.06 ЮЗ 2 70 км 9/0
[]
+18.7 +11.3 62 +20 +20 1016.5 984.8
21 15.06 ЮЗ 3 70 км 9/9 1200 м
[]
+17.3 +11.8 70 +17 +17 1017.4 985.5
22 15.06 ЮЗ 2-3
{4}
70 км 10/0
[]
+16.9 +11.9 72 +17 +17 1018.2 986.2
23 15.06 ЮЗ 3 70 км 10/0
[]
+16.9 +11.3 70 +17 +17 1018.8 986.8
00 16.06 ЮЗ 2 70 км 10/0 2000 м
[]
+16.2 +11.6 74 +16 +16 1019.1 987.0
01 16.06 ЮЗ 2 70 км 10/0 2000 м
[]
+15.6 +11.1 75 +16 +16 1019.5 987.3
02 16.06 Ю 2 70 км 10/0
[]
+15.1 +10.9 76 +15 +15 1019.6 987.4
03 16.06 Ю 1 70 км 10/0
[]
+14.4 +10.6 78 +15 +15 1020.0 987.7
04 16.06 Ю 2 60 км 10/0
[]
+14.0 +10.6 80 +13 +14 1020.4 988.0
05 16.06 ЮЗ 2 55 км 8/0
[]
+13.6 +10.6 82 +13 +14 1020.6 988.2
06 16.06 ЮЗ 3 35 км ясно +15.3 +10.7 74 +15 +17 1020.8 988.6 +13.5 +21.7
07 16.06 ЮЗ 3-4
{5}
50 км ясно +16.8 +10.5 66 +17 +22 1021.1 989.0
08 16.06 Ю 3-5
{5}
26 км ясно +18.6 +10.4 59 +19 +27 1021.0 989.1
09 16.06 ЮЗ 4 40 км ясно +19.2 +10.3 56 +20 +29 1021.0 989.2
10 16.06 ЮЗ 5-7
{8}
40 км 6/6 1500 м
[]
+21.8 +11.1 51 +24 +27 комфорт 1020.9 989.4
11 16.06 ЮЗ 5-9
{9}
35 км 9/9 1500 м
[]
+20.9 +10.4 51 +23 +24 комфорт 1021.3 989.6
12 16.06 ЮЗ 5 55 км 10/10 1170 м
[]
+19.8 +10.8 56 +21 +21 комфорт 1021.4 989.6
13 16.06 ЮЗ 4 35 км 10/10 1200 м
[]
+20.3 +10.1 52 +22 +22 комфорт 1021.4 989.7
14 16.06 ЮЗ 4 45 км 9/9 1440 м
[]
+19.8 +10.1 54 +21 +22 комфорт 1021.5 989.7
15 16.06 Ю 4 45 км 9/0
[]
+22.6 +9.6 44 +24 +28 комфорт 1021.0 989.5
16 16.06 ЮЗ 4 40 км 5/5 30 м
[]
+22.0 +10.8 49 +24 +26 комфорт 1020.8 989.3
17 16.06 ЮЗ 4-6
{6}
35 км 1/0 2000 м
[]
+21.6 +10.0 48 +23 +25 комфорт 1020.8 989.2
18 16.06 ЮЗ 2 45 км ясно +21.2 +10.4 50 +23 +24 комфорт 1020.8 989.2 +15.4 +23.2
19 16.06 Ю 2-3
{4}
70 км ясно +20.2 +10.7 54 +22 +23 комфорт 1020.9 989.2
20 16.06 ЮВ 1-1
{2}
70 км ясно +17.2 +11.1 67 +18 +18 1021.3 989.3
21 16.06 В 2-3
{4}
70 км ясно +15.4 +11.2 76 +15 +15 1021.9 989.6
22 16.06 В 1-2
{3}
60 км ясно +14.1 +11.0 82 +14 +14 1022.1 989.7
23 16.06 В 1-2
{2}
65 км ясно +14.1 +11.0 82 +14 +14 1022.1 989.7
00 17.06 В 2 60 км ясно +13.0 +10.6 85 +12 +12 1022.1 989.6
01 17.06 С 2-2
{2}
60 км ясно +11.9 +10.2 89 +11 +11 1022.4 989.7
02 17.06 С 2-2
{3}
60 км ясно +11.6 +10.3 92 +10 +10 1022.3 989.6
03 17.06 С 3-4
{4}
50 км ясно +10.7 +9.6 93 +9 +9 1022.4 989.6
04 17.06 С 2-3
{3}
50 км 9/0
[]
+10.7 +9.8 94 +9 +9 1022.2 989.4
05 17.06 СВ 2-3
{4}
40 км 1/0
[]
+11.2 +10.3 94 +10 +11 1022.1 989.4
06 17.06 С 2 65 км 4/0
[]
+14.1 +10.9 81 +14 +16 1021.8 989.4 +10.5 +21.6
07 17.06 С 2-3
{4}
60 км 6/0
[]
+15.6 +10.7 73 +16 +20 1021.5 989.3
08 17.06 СВ 2 65 км 5/0
[]
+19.5 +12.7 65 +22 +29 комфорт 1020.6 988.8
09 17.06 С 3 70 км 6/0
[]
+21.6 +12.2 55 +24 +32 комфорт 1020.0 988.5
10 17.06 С 3-4
{5}
60 км 1/0
[]
+22.8 +11.8 50 +25 +38 комфорт 1019.6 988.2
11 17.06 В 1-3
{6}
70 км 6/6 1500 м
[]
+24.4 +11.4 44 +26 +34 жарко 1019.0 987.8
12 17.06 ЮВ 2 70 км 1/1 30 м
[]
+25.7 +10.2 38 +27 +42 жарко 1018.4 987.3
13 17.06 СВ 3-5
{6}
70 км 6/6 1500 м
[]
+24.6 +9.8 39 +25 +31 комфорт 1018.2 987.0
14 17.06 СВ 4-6
{7}
70 км 9/9 1500 м
[]
+24.5 +10.4 41 +26 +26 жарко 1017.6 986.4
15 17.06 СВ 3 70 км 5/5 1500 м
[]
+24.4 +10.4 41 +25 +30 комфорт 1017.3 986.1
17 17.06 В 2-4
{5}
70 км 1/1 1500 м
[]
+25.4 +10.2 38 +26 +29 жарко 1016.4 985.4
18 17.06 СВ 3 70 км 1/1 1500 м
[]
+24.8 +10.0 39 +26 +27 жарко 1016.2 985.1 +14.1 +26.8

 

Местоположение метеостанции Трир (Германия): широта 49.75 долгота 6.67 высота над уровнем моря 265 м.

В архиве по умолчанию представлена погода в Трире за последнюю неделю. Архивные данные за месяц целиком и за предыдущие месяцы, начиная с января 2011 года, Вы можете получить, выбрав интересующий диапазон дат из раскрывающегося списка и нажав кнопку "Ввод!".


*Определитесь, кто Вы:
робот инопланетянин человек

Внимание! Время в таблицах - всемирное. Для получения местного времени необходимо прибавить поправку, которая равна 1 ч.

Смотрите также архив погоды в соседних городах и на ближайших метеорологических станциях:

Погода в Дойзельбахе (Германия) (27 км)
Погода в Люксембурге (Люксембург) (37 км)
Погода в Толае (Германия) (41 км)
Погода в Идар-Оберштайне (Германия) (48 км)
Погода в Аэропорту Франкфурт-Хан (Германия) (48 км)
Погода в Берусе (Германия) (52 км)
Погода на Базе ВВС Buechel (Германия) (55 км)
Погода в Саарбрюккене (Германия) (67 км)
Погода в Нюрбург-Барвайлере (Германия) (70 км)
Погода в Бюзеноле (Бельгия) (80 км)

Пояснения к столбцам:

Ветер - указаны скорость ветра в м/с - средняя за 10 мин, порывы в срок и между сроками (в фигурных скобках) и направление, откуда дует ветер: С - северный, СВ - северо-восточный, В - восточный, ЮВ - юго-восточный, Ю - южный, ЮЗ - юго-западный, З - западный, СЗ - северо-западный.
Видимость - горизонтальная дальность видимости в метрах или километрах. При видимости от 1 до 10 км при отсутствии осадков обычно наблюдается дымка, при ухудшении видимости до 1 км и менее - туман. В сухую погоду видимость может ухудшаться дымом, пылью или мглою.
Явления - указаны атмосферные явления, наблюдавшиеся в срок или в последний час перед сроком; фигурными скобками обозначены явления, наблюдавшиеся между сроками (за 1-3 часа до срока); квадратными скобками обозначены град или гололедные отложения с указанием их диаметра в мм.
Облачность - указаны через наклонную черту общая и нижняя облачность в баллах и высота нижней границы облаков в метрах; квадратными скобками обозначены формы облаков: Ci - перистые, Cs - перисто-слоистые, Cc - перисто-кучевые, Ac - высококучевые, As - высокослоистые, Sc - слоисто-кучевые, Ns - слоисто-дождевые, Cu - кучевые, Cb - кучево-дождевые. Подробнее классификацию облаков см. в Атласе облаков (PDF).
T - Температура воздуха - температура, измеренная на высоте 2 м над землей.
Td - Температура точки росы - температура, при понижении до которой содержащийся в воздухе водяной пар достигнет насыщения.
f - Относительная влажность воздуха - влажноcть воздуха, измеренная на высоте 2 м над землей.
Te - Эффективная температура - температура, которую ощущает одетый по сезону человек в тени. Характеристика душности погоды. При расчете учитывается влияние влажности воздуха и скорости ветра на теплоощущения человека.
Tes - Эффективная температура на солнце - температура, которую ощущает человек, с поправкой на солнечный нагрев. Характеристика знойности погоды. Зависит от высоты солнца над горизонтом, облачности и скорости ветра. Ночью, в пасмурную погоду, а также при ветре 12 м/с и более поправка равна нулю.
P - Атмосферное давление - приведенное к уровню моря атмосферное давление.
Po - Атмосферное давление - измеренное на уровне метеостанции атмосферное давление.
Tmin - Минимальная температура - минимум температуры воздуха на высоте 2 м над землей.
Tmax - Максимальная температура - максимум температуры воздуха на высоте 2 м над землей.
R - Количество осадков - Количество выпавших осадков за период времени, мм. При наведении курсора мыши на число - период времени, за который выпало указанное количество осадков.
R24 - Количество осадков - Количество выпавших осадков за 24 часа, мм.
S - Снежный покров - Высота снежного покрова, см. При наведении курсора мыши на число - состояние снежного покрова и степень покрытия местности в баллах.